TimePST,TemperatureF,Dew PointF,Humidity,Sea Level PressureIn,VisibilityMPH,Wind Direction,Wind SpeedMPH,Gust SpeedMPH,PrecipitationIn,Events,Conditions,WindDirDegrees,DateUTC
12:55 AM,55.0,50.0,83,29.97,4.0,ENE,10.4,-,N/A,,Haze,60,2012-12-12 08:55:00
1:43 AM,53.6,50.0,88,29.94,4.0,ENE,8.1,-,N/A,,Scattered Clouds,60,2012-12-12 09:43:00
1:55 AM,54.0,50.0,86,29.98,4.0,NE,6.9,-,N/A,,Mostly Cloudy,40,2012-12-12 09:55:00
2:26 AM,55.4,50.0,82,29.95,4.0,Calm,Calm,-,N/A,,Haze,0,2012-12-12 10:26:00
2:55 AM,55.0,50.0,83,29.97,5.0,Calm,Calm,-,N/A,,Haze,0,2012-12-12 10:55:00
3:19 AM,53.6,50.0,88,29.93,5.0,ENE,6.9,-,N/A,,Overcast,70,2012-12-12 11:19:00
3:55 AM,55.0,48.9,80,29.95,5.0,ENE,4.6,-,N/A,,Haze,70,2012-12-12 11:55:00
4:05 AM,55.4,50.0,82,29.93,5.0,East,4.6,-,N/A,,Haze,80,2012-12-12 12:05:00
4:55 AM,55.9,50.0,80,29.96,5.0,Calm,Calm,-,N/A,,Haze,0,2012-12-12 12:55:00
5:55 AM,55.9,50.0,80,29.95,6.0,NE,4.6,-,N/A,,Haze,40,2012-12-12 13:55:00
6:48 AM,55.4,50.0,82,29.93,6.0,ENE,3.5,-,N/A,,Haze,60,2012-12-12 14:48:00
6:55 AM,55.0,50.0,83,29.96,6.0,ENE,4.6,-,N/A,,Haze,70,2012-12-12 14:55:00
7:55 AM,57.0,51.1,81,29.96,5.0,NE,3.5,-,N/A,,Haze,40,2012-12-12 15:55:00
8:55 AM,60.1,51.1,72,29.97,10.0,Calm,Calm,-,N/A,,Overcast,0,2012-12-12 16:55:00
9:55 AM,60.1,50.0,69,29.98,10.0,Calm,Calm,-,N/A,,Overcast,0,2012-12-12 17:55:00
10:55 AM,61.0,48.9,64,29.97,10.0,SSW,5.8,-,N/A,,Overcast,210,2012-12-12 18:55:00
11:55 AM,60.1,51.1,72,29.94,10.0,Calm,Calm,-,0.00,,Mostly Cloudy,0,2012-12-12 19:55:00
12:55 PM,62.1,48.9,62,29.91,10.0,South,8.1,-,N/A,,Overcast,190,2012-12-12 20:55:00
1:55 PM,62.1,48.0,60,29.89,10.0,SSW,8.1,-,N/A,,Overcast,200,2012-12-12 21:55:00
2:55 PM,61.0,48.9,64,29.88,10.0,South,9.2,-,N/A,,Overcast,190,2012-12-12 22:55:00
3:55 PM,59.0,52.0,78,29.89,9.0,SSW,6.9,-,0.00,Rain,Light Rain,200,2012-12-12 23:55:00
4:55 PM,57.0,51.1,81,29.88,8.0,South,4.6,-,0.00,Rain,Light Rain,190,2012-12-13 00:55:00
5:55 PM,55.9,52.0,87,29.88,10.0,Calm,Calm,-,0.01,,Overcast,0,2012-12-13 01:55:00
6:55 PM,55.9,51.1,84,29.88,4.0,ESE,3.5,-,0.01,Rain,Light Rain,110,2012-12-13 02:55:00
6:57 PM,55.4,51.8,88,29.85,3.0,Calm,Calm,-,0.00,Rain,Light Rain,0,2012-12-13 02:57:00
7:55 PM,55.9,52.0,87,29.88,6.0,Calm,Calm,-,0.01,Rain,Light Rain,0,2012-12-13 03:55:00
8:55 PM,55.9,52.0,87,29.87,10.0,East,3.5,-,0.02,,Overcast,80,2012-12-13 04:55:00
9:02 PM,55.4,51.8,88,29.85,9.0,ENE,3.5,-,N/A,,Overcast,70,2012-12-13 05:02:00
9:40 PM,55.4,51.8,88,29.85,4.0,West,3.5,-,0.02,Rain,Heavy Rain,270,2012-12-13 05:40:00
9:55 PM,55.0,52.0,89,29.88,10.0,Calm,Calm,-,0.02,,Overcast,0,2012-12-13 05:55:00
10:26 PM,55.4,51.8,88,29.85,10.0,Calm,Calm,-,N/A,,Overcast,0,2012-12-13 06:26:00
10:55 PM,55.0,52.0,89,29.88,7.0,Calm,Calm,-,0.01,Rain,Light Rain,0,2012-12-13 06:55:00
11:17 PM,55.4,51.8,88,29.85,7.0,Calm,Calm,-,0.00,,Overcast,0,2012-12-13 07:17:00
11:39 PM,55.4,51.8,88,29.84,7.0,Calm,Calm,-,0.00,Rain,Light Rain,0,2012-12-13 07:39:00
11:55 PM,55.0,52.0,89,29.87,5.0,Calm,Calm,-,0.01,Rain,Light Rain,0,2012-12-13 07:55:00